Weather History for Guatemala Aeropuertola Aurora, Guatemala

Change the Weather History Date:

Wednesday, October 2, 2013

  Actual Average Record
Temperature  
Mean Temperature 70 °F -  
Max Temperature 79 °F 72 °F - ()
Min Temperature 61 °F 59 °F - ()
Cooling Degree Days 5    
Growing Degree Days 20 (Base 50)    
Moisture  
Dew Point 59 °F    
Average Humidity 71    
Maximum Humidity 94    
Minimum Humidity 35    
Precipitation  
Precipitation 0.00 in - - ()
Sea Level Pressure  
Sea Level Pressure 30.18 in    
Wind  
Wind Speed 7 mph ()    
Max Wind Speed 12 mph    
Max Gust Speed -    
Visibility 6.2 miles    
Events      
T = Trace of Precipitation, MM = Missing Value Source: Averaged Metar Reports

Daily Weather History Graph

Daily Weather History Graph

Search for Another Location

Airport:

Trip Planner

Search our weather history database for the weather conditions in past years. The results will help you decide how hot, cold, wet, or windy it might be!

Date:

Astronomy

Oct. 02, 2013 Rise Set
Actual Time 5:51 AM CST 5:50 PM CST
Civil Twilight 5:30 AM CST 6:11 PM CST
Nautical Twilight 5:05 AM CST 6:36 PM CST
Astronomical Twilight 4:40 AM CST 7:01 PM CST
Moon 3:43 AM CST (10/2) 4:12 PM CST (10/2)
Length of Visible Light 12h 41m
Length of Day
11h 58m
Waning Crescent, 6% of the Moon is Illuminated
Oct 2
Waning Crescent
Oct 4
New
Oct 11
First Quarter
Oct 18
Full
Oct 26
Last Quarter

Hourly Weather History & Observations

Time (CST) Temp. Dew Point Humidity Pressure Visibility Wind Dir Wind Speed Gust Speed Precip Events Conditions
12:00 AM 66.2 °F 60.8 °F 83% 30.24 in 6.2 mi North 6.9 mph - N/A   Scattered Clouds
1:00 AM 62.6 °F 60.8 °F 94% 30.24 in 6.2 mi North 11.5 mph - N/A   Scattered Clouds
2:00 AM 62.6 °F 60.8 °F 94% 30.21 in 6.2 mi North 11.5 mph - N/A   Mostly Cloudy
3:00 AM 64.4 °F 60.8 °F 88% 30.21 in 6.2 mi NNE 9.2 mph - N/A   Mostly Cloudy
4:00 AM 62.6 °F 60.8 °F 94% 30.21 in 6.2 mi NNE 6.9 mph - N/A   Mostly Cloudy
5:00 AM 62.6 °F 60.8 °F 94% 30.21 in 6.2 mi NNE 6.9 mph - N/A   Mostly Cloudy
6:00 AM 64 °F 60 °F 84% 29.90 in 25 mi NNE 4.6 mph - -   Overcast
6:00 AM 64.4 °F 60.8 °F 88% 30.21 in 6.2 mi NNE 4.6 mph - N/A   Mostly Cloudy
7:00 AM 62.6 °F 60.8 °F 94% 30.24 in 6.2 mi NE 4.6 mph - N/A   Mostly Cloudy
7:30 AM - - N/A% - 6.2 mi NNE 6.9 mph - N/A   Mostly Cloudy
8:00 AM 66.2 °F 60.8 °F 83% 30.24 in 6.2 mi NE 6.9 mph - N/A   Mostly Cloudy
9:00 AM 71.6 °F 59.0 °F 64% 30.24 in 6.2 mi North 6.9 mph - N/A   Mostly Cloudy
10:00 AM 73.4 °F 59.0 °F 61% 30.24 in 6.2 mi North 9.2 mph - N/A   Mostly Cloudy
11:00 AM 75.2 °F 57.2 °F 53% 30.21 in 6.2 mi NNE 9.2 mph - N/A   Mostly Cloudy
12:00 PM 79 °F 56 °F 35% 29.85 in 25 mi NE 9.2 mph - -   Scattered Clouds
12:00 PM 78.8 °F 55.4 °F 44% 30.18 in 6.2 mi NE 9.2 mph - N/A   Scattered Clouds
1:00 PM 78.8 °F 59.0 °F 51% 30.18 in 6.2 mi NNE 11.5 mph - N/A   Partly Cloudy
2:00 PM 77.0 °F 57.2 °F 50% 30.15 in 6.2 mi NE 11.5 mph - N/A   Partly Cloudy
3:00 PM 77.0 °F 57.2 °F 50% 30.12 in 6.2 mi NE 9.2 mph - N/A   Partly Cloudy
4:00 PM 77.0 °F 51.8 °F 41% 30.12 in 6.2 mi ENE 6.9 mph - N/A   Partly Cloudy
5:00 PM 75.2 °F 53.6 °F 47% 30.12 in 6.2 mi East 6.9 mph - N/A   Partly Cloudy
5:04 PM - - N/A% - 6.2 mi South 6.9 mph - N/A   Partly Cloudy
6:00 PM 71.6 °F 64.4 °F 78% 30.18 in 6.2 mi South 9.2 mph - N/A   Scattered Clouds
6:40 PM - - N/A% - 6.2 mi ENE 4.6 mph - N/A   Scattered Clouds
7:00 PM 69.8 °F 60.8 °F 73% 30.21 in 5.0 mi NE 6.9 mph - N/A   Scattered Clouds
8:00 PM 69.8 °F 59.0 °F 68% 30.21 in 6.2 mi NE 6.9 mph - N/A   Scattered Clouds
9:00 PM 66.2 °F 59.0 °F 78% 30.24 in 6.2 mi North 9.2 mph - N/A   Partly Cloudy
10:00 PM 66.2 °F 59.0 °F 78% 30.24 in - North 6.9 mph - N/A   Clear
11:00 PM 64.4 °F 57.2 °F 77% 30.24 in - North 9.2 mph - N/A   Clear